Skip Page Navigation
NASA JPL Caltech
NASA Logo - Jet Propulsion Laboratory + View the NASA Portal
+ Near-Earth Object (NEO) Program
Search JPL
JPL Home Earth Solar System Stars & Galaxies Technology
JPL Solar System Dynamics
BODIES ORBITS EPHEMERIDES TOOLS PHYSICAL DATA DISCOVERY FAQ SITE MAP
JPL Small-Body Database Browser
Search: [ help ]  
35243 (1995 TZ1)
Classification: Main-belt Asteroid          SPK-ID: 2035243
Ephemeris | Orbit Diagram | Orbital Elements | Physical Parameters | Discovery Circumstances | Close-Approach Data ]

[ show orbit diagram ]
Orbital Elements at Epoch 2457600.5 (2016-Jul-31.0) TDB
Reference: JPL 14 (heliocentric ecliptic J2000)
 Element Value Uncertainty (1-sigma)   Units 
e .2387399930731981 7.3891e-08  
a 2.630767128652432 1.5098e-08 au
q 2.002697802580753 1.927e-07 au
i 7.632267393695007 8.5979e-06 deg
node 42.6541082910534 3.7877e-05 deg
peri 201.3740259907505 4.0322e-05 deg
M 90.62966669145287 1.2122e-05 deg
tp 2457208.135308286263
(2015-Jul-04.63530829)
5.2796e-05 JED
period 1558.554656256576
4.27
1.3417e-05
3.673e-08
d
yr
n .2309832372928571 1.9884e-09 deg/d
Q 3.258836454724111 1.8702e-08 au
  Orbit Determination Parameters
   # obs. used (total)      814  
   data-arc span      7244 days (19.83 yr)  
   first obs. used      1995-10-14  
   last obs. used      2015-08-14  
   planetary ephem.      DE431  
   SB-pert. ephem.      SB431-BIG16  
   condition code      0  
   fit RMS      .56604  
   data source      ORB  
   producer      Otto Matic  
   solution date      2015-Sep-02 15:27:16  

Additional Information
 Earth MOID = .99199 au 
 Jupiter MOID = 1.77249 au 
 T_jup = 3.347 
[ show covariance matrix ]

Ephemeris | Orbit Diagram | Orbital Elements | Physical Parameters | Discovery Circumstances | Close-Approach Data ]

Physical Parameter Table
Parameter Symbol Value Units Sigma Reference Notes
absolute magnitude H 14.4 mag n/a MPO344573  

35243 (1995 TZ1)          Discovered 1995-Oct-14 by BAO Schmidt CCD Asteroid Program at Xinglong
Reference: 20020227/Numbers.arcLast Updated: 2004-04-19

[ show close-approach data ]
Alternate Designations
 1995 TZ1 = 1998 KR62 
Ephemeris | Orbit Diagram | Orbital Elements | Physical Parameters | Discovery Circumstances | Close-Approach Data ]
ABOUT SSD CREDITS/AWARDS PRIVACY/COPYRIGHT GLOSSARY LINKS
FirstGov 2016-May-01 13:39 UT
(server date/time)  
NASA Home Page
Site Manager:   Ryan S. Park
Webmaster  Alan B. Chamberlin